This demonstration page uses our WeatherBlox Daily Observations layout. Learn more.

Left ArrowRight Arrow

39.01783, -85.05884

Hourly Observations for June 16, 2021

Temp ( °F °C ) Dew Point ( °F °C ) Humidity (%) Winds ( mph kmh ) Pressure ( in mb ) Visibility ( mi km ) Precip ( " mm )
12:52 am 00:52 Mostly Clear 67 19.4 52 11.1 59 59 NNW 6 9 29.98 1015 10 16 N/A
1:52 am 01:52 Mostly Clear 65 18.3 53 11.7 66 66 N 7 11 30.00 1016 10 16 N/A
2:52 am 02:52 Mostly Clear 67 19.4 52 11.1 59 59 E 12 19 30.00 1016 10 16 N/A
3:52 am 03:52 Mostly Clear 64 17.8 52 11.1 65 65 E 6 9 30.01 1016 10 16 N/A
4:52 am 04:52 Mostly Clear 64 17.8 52 11.1 65 65 E 8 13 30.02 1017 10 16 N/A
5:52 am 05:52 Partly Cloudy 62 16.7 52 11.1 70 70 E 6 9 30.03 1017 10 16 N/A
6:52 am 06:52 Mostly Sunny 62 16.7 52 11.1 70 70 E 5 7 30.04 1017 10 16 N/A
7:52 am 07:52 Partly Cloudy 65 18.3 52 11.1 63 63 ENE 9 15 30.06 1018 10 16 N/A
8:52 am 08:52 Mostly Sunny 67 19.4 45 7.2 45 45 E 12 19 30.07 1018 10 16 N/A
9:52 am 09:52 Sunny 70 21.1 43 6.1 38 38 NE 10 17 30.09 1019 10 16 N/A
10:52 am 10:52 Mostly Sunny 71 21.7 42 5.6 35 35 VRB 6 9 30.08 1019 10 16 N/A
11:52 am 11:52 Partly Cloudy 74 23.3 44 6.7 34 34 VRB 6 9 30.08 1019 10 16 N/A
12:52 pm 12:52 Partly Cloudy 76 24.4 46 7.8 35 35 ENE 7 11 30.07 1018 10 16 N/A
1:52 pm 13:52 Mostly Sunny 77 25 47 8.3 35 35 N 9 15 30.06 1018 10 16 N/A
2:52 pm 14:52 Mostly Sunny 78 25.6 47 8.3 33 33 WNW 7 11 30.04 1017 10 16 N/A
3:52 pm 15:52 Mostly Sunny 79 26.1 47 8.3 32 32 NNW 7 11 30.03 1017 10 16 N/A
4:52 pm 16:52 Mostly Sunny 80 26.7 47 8.3 31 31 NNW 7 11 30.03 1017 10 16 N/A
5:52 pm 17:52 Mostly Sunny 79 26.1 47 8.3 32 32 N 7 11 30.02 1017 10 16 N/A
6:17 pm 18:17 Mostly Sunny 79 26.1 47 8.3 32 32 N 9 15 30.00 1016 10 16 N/A
6:52 pm 18:52 Mostly Sunny 79 26.1 47 8.3 32 32 N 5 7 30.00 1016 10 16 N/A
7:52 pm 19:52 Partly Cloudy 77 25 45 7.2 32 32 N 3 6 30.01 1016 10 16 N/A
8:52 pm 20:52 Mostly Sunny 76 24.4 45 7.2 33 33 N N/A 30.01 1016 10 16 N/A
9:52 pm 21:52 Partly Cloudy 66 18.9 50 10 56 56 N N/A 30.01 1016 10 16 N/A
10:52 pm 22:52 Mostly Clear 68 20 49 9.4 51 51 SSE 5 7 30.02 1017 10 16 N/A
11:52 pm 23:52 Mostly Clear 67 19.4 47 8.3 49 49 S 5 7 30.02 1017 10 16 N/A

Powered by AerisWeather